This demonstration page uses our WeatherBlox Daily Observations layout. Learn more.

Left ArrowRight Arrow

Hourly Observations for April 26, 2019

Temp ( °F °C ) Dew Point ( °F °C ) Humidity (%) Winds ( mph kmh ) Pressure ( in mb ) Visibility ( mi km ) Precip ( " mm )
12:53 am 00:53 Clear 69 20.6 52 11.1 55 55 E 13 20 29.97 1015 10 16 0.00 0.00
1:53 am 01:53 Clear 67 19.4 53 11.7 61 61 E 13 20 29.98 1015 10 16 0.00 0.00
2:53 am 02:53 Clear 65 18.3 52 11.1 63 63 E 12 19 29.98 1015 10 16 0.00 0.00
3:53 am 03:53 Clear 63 17.2 52 11.1 68 68 E 10 17 29.99 1016 10 16 0.00 0.00
4:53 am 04:53 Clear 62 16.7 52 11.1 70 70 E 13 20 30.00 1016 10 16 0.00 0.00
5:53 am 05:53 Clear 62 16.7 52 11.1 70 70 E 15 24 30.01 1016 10 16 0.00 0.00
6:53 am 06:53 Clear 60 15.6 52 11.1 75 75 E 14 22 30.04 1017 10 16 0.00 0.00
7:53 am 07:53 Sunny 60 15.6 52 11.1 75 75 E 13 20 30.08 1019 10 16 0.00 0.00
8:53 am 08:53 Sunny 63 17.2 50 10 63 63 E 15 24 30.10 1019 10 16 0.00 0.00
9:53 am 09:53 Sunny 67 19.4 46 7.8 47 47 ESE 20 31 30.11 1020 10 16 0.00 0.00
10:53 am 10:53 Sunny 70 21.1 45 7.2 41 41 ESE 16 26 30.11 1020 10 16 0.00 0.00
11:53 am 11:53 Sunny 73 22.8 46 7.8 38 38 ESE 15 24 30.10 1019 10 16 0.00 0.00
12:53 pm 12:53 Sunny 75 23.9 46 7.8 36 36 SSE 21 33 30.06 1018 10 16 0.00 0.00
1:53 pm 13:53 Sunny 76 24.4 48 8.9 37 37 SE 20 31 30.02 1017 10 16 0.00 0.00
2:53 pm 14:53 Sunny 79 26.1 48 8.9 34 34 SSE 14 22 29.99 1016 10 16 0.00 0.00
3:53 pm 15:53 Sunny 80 26.7 49 9.4 34 34 SE 20 31 29.95 1014 10 16 0.00 0.00
4:53 pm 16:53 Sunny 81 27.2 50 10 34 34 SE 14 22 29.91 1013 10 16 0.00 0.00
5:53 pm 17:53 Sunny 81 27.2 51 10.6 35 35 SE 20 31 29.87 1012 10 16 0.00 0.00
6:53 pm 18:53 Sunny 82 27.8 51 10.6 34 34 SE 16 26 29.85 1011 10 16 0.00 0.00
7:53 pm 19:53 Sunny 80 26.7 50 10 35 35 SE 20 31 29.83 1010 10 16 0.00 0.00
8:53 pm 20:53 Clear 76 24.4 51 10.6 42 42 SE 14 22 29.82 1010 10 16 0.00 0.00
9:53 pm 21:53 Clear 73 22.8 52 11.1 48 48 SE 16 26 29.84 1010 10 16 0.00 0.00
10:53 pm 22:53 Clear 72 22.2 52 11.1 50 50 SE 15 24 29.84 1011 10 16 0.00 0.00
11:53 pm 23:53 Clear 69 20.6 53 11.7 57 57 SE 14 22 29.83 1010 10 16 0.00 0.00

Powered by AerisWeather